Location: Waco, TX
(31.5480°N, 97.1670°W)
Time: 08:23:32

ISS - Pass Details

Date: 08 March 2018
Orbit: 403 x 406 km, 51.6° (Epoch: 22 March)

Event Time Altitude Azimuth Distance (km) Brightness Sun altitude
Rises 03:08:48 0° 260° (W) 2,318 - -46.0°
Reaches altitude 10° 03:11:24 10° 282° (WNW) 1,460 - -45.5°
Maximum altitude 03:13:38 17° 325° (NW) 1,121 - -45.1°
Drops below altitude 10° 03:15:51 10° 8° (N) 1,464 - -44.7°
Sets 03:18:28 0° 29° (NNE) 2,325 - -44.2°
